Tracking 31027 objects as of 19-Jul-2025
HD Live streaming from Space Station
objects crossing your sky now

STARLINK-2421

Track STARLINK-2421 now!
10-day predictions
STARLINK-2421 is classified as:


NORAD ID: 48098
Int'l Code: 2021-027G
Perigee: 553.3 km
Apogee: 555.4 km
Inclination: 53.1 °
Period: 95.6 minutes
Semi major axis: 6925 km
RCS: Unknown
Launch date: April 7, 2021
Source: United States (US)
Launch site: AIR FORCE EASTERN TEST RANGE (AFETR)
Your satellite tracking list
STARLINK-4324
Track 1 satellite(s)




NASA's NSSDC Master Catalog

Two Line Element Set (TLE):
1 48098U 21027G   25199.10275458 -.00000080  00000-0  13501-4 0  9992
2 48098  53.0553 134.7230 0001509  91.1724 268.9438 15.06391941237192
Source of the keplerian elements: AFSPC